Regional Weather Roundup
Issued by NWS Green Bay, WI

Home | Current Version | Previous Version | Graphics & Text | Print | Product List | Glossary Off
Versions: 1 2 3 4 5 6 7 8 9 10 11 12 13 14 15 16 17 18 19 20 21 22 23 24 25 26 27 28 29 30 31 32 33 34 35 36 37 38 39 40 41 42 43 44 45 46 47 48 49 50

000
ASUS43 KGRB 011910
RWRGRB

NORTH-CENTRAL AND NORTHEAST WISCONSIN REGIONAL WEATHER ROUNDUP
NATIONAL WEATHER SERVICE GREEN BAY WI
100 PM CST SUN FEB 01 2015

WIZ005-009-010>012-018-019-012000-
NORTH CENTRAL WISCONSIN

CITY           SKY/WX    TMP DP  RH WIND       PRES   REMARKS
IRONWOOD       CLOUDY    10   1  67 NE12G18   30.22F WCI  -4
MANITOWISH WTR CLOUDY     9  -2  62 NE13G18   30.18F WCI  -7
ARBOR VITAE    CLOUDY    11   1  62 NE10G17   30.17F WCI  -2
EAGLE RIVER    CLOUDY     9  -2  60 NE10G20   30.16F WCI  -5
LAND O LAKES   CLOUDY    10   1  67 N8        30.18F WCI  -3
RHINELANDER    CLOUDY     9  -1  64 NE10G20   30.15F WCI  -5
PHILLIPS       PTSUNNY    9  -1  63 NE15G22   30.17F WCI  -7
ANTIGO         CLOUDY    10   2  70 NE18      30.11F WCI  -8
TOMAHAWK       CLOUDY    11  -1  59 NE8G16    30.16F WCI  -1
MERRILL        CLOUDY    12   1  60 NE15G22   30.14F WCI  -4
$$

WIZ013-073-012000-
NORTHEAST WISCONSIN

CITY           SKY/WX    TMP DP  RH WIND       PRES   REMARKS
IRON MOUNTAIN  CLOUDY    11   1  64 NE13      30.19F WCI  -4
MARINETTE      CLOUDY     9  -6  52 NE21G28   30.21F WCI -11
OCONTO         CLOUDY     9  -1  64 NE13G24   30.20F WCI  -7
$$

WIZ017-030-035>037-045-012000-
CENTRAL WISCONSIN

CITY           SKY/WX    TMP DP  RH WIND       PRES   REMARKS
MEDFORD        CLOUDY    11   0  61 NE12      30.12F WCI  -3
WAUSAU         CLOUDY    12   1  61 NE16G23   30.12F WCI  -5
MOSINEE        MOSUNNY   12   3  67 NE15G22   30.13F WCI  -4
MARSHFIELD     CLOUDY    13   2  61 NE17G23   30.11F WCI  -4
WISC RAPIDS    CLOUDY    13   0  56 NE15G22   30.12F WCI  -3
STEVENS POINT  CLOUDY    10   0  64 NE17      30.13S WCI  -8
WAUPACA        CLOUDY    13   3  64 NE15G22   30.14S HAZE    WCI  -3
SHAWANO        CLOUDY    13  -1  55 NE18G25   30.18F WCI  -5
CLINTONVILLE   CLOUDY    12   0  57 NE17G25   30.16F WCI  -5
$$

WIZ038-039-048-051-012000-
FOX VALLEY

CITY           SKY/WX    TMP DP  RH WIND       PRES   REMARKS
NWS GREEN BAY  MIX PCPN  10   3  73 NE29G38   30.15F WCI -12
APPLETON       LGT SNOW  10   3  72 NE22G30   30.09F WCI  -9
OSHKOSH        SNOW      11   6  81 N24G35    30.07F VSB 1/2 WCI  -9
FOND DU LAC    HAZE      11   5  77 N28G37    30.06F VSB 1/2 WCI -10
$$

WIZ022-050-052-012000-
EAST CENTRAL WISCONSIN

CITY           SKY/WX    TMP DP  RH WIND       PRES   REMARKS
STURGEON BAY   CLOUDY     9   1  72 N20G25    30.19F WCI -11
MANITOWOC      LGT SNOW  18  15  88 NE17G25   30.08F VSB 3/4 WCI   3
SHEBOYGAN      LGT SNOW  19  15  84 NE24G30   30.03F VSB 3/4 WCI   2
$$

LMZ563-521-522-541>543-012000-
LAKESHORE

STATION/POSITION TIME  TEMP    WIND        PRES    VSBY  WAVE
                       AIR SEA DIR/SP/G                  HT/PER
                 (UTC) (F)     (DEG/KT/KT) (MB)    (MI)  (FT/S)
SHEBOYGAN LKSHOR 1900   20      40/ 28/ 31 1018.0F
KEWAUNEE LKSHORE 1900   17      40/ 27/ 33 1019.0F
NORTHPORT PIER   1900    9      30/ 15     1024.0S
SISTER BAY LKSHO 1900   10      20/ 13/ 20   N/A
STURGEON BAY CG  1900   12      20/ 13     1021.9   3 1/2  2
CHAMBERS ISLAND  1900    6      10/ 24/ 28 1023.7F
MENOMINEE LKSHOR 1900    7      20/ 28     1024.1F
$$


USA.gov is the U.S. government's official web portal to all federal, state and local government web resources and services.